SFR238 FAOR-FAPE

Flight info

Callsign SFR238
Flight time 1h 26m
Altitude 36000
Route OVALA1B OVALA UZ18 NEVEN UQ8 ALKAT DCT PEV
Aircraft B738/M-SDE2E3FGHIRWXY/LB1

Departure

Time 2026-05-06 14:21
Airport O.R. Tambo International Airport (FAOR)

Arrival

Time 2026-05-06 15:47
Airport Chief Dawid Stuurman International Airport (FAPE)
Time Latitude Longitude Altitude Speed Heading
2026-05-06 13:48 -26.13694 28.23190 5549 ft 0 kts
2026-05-06 14:09 -26.13702 28.23189 5549 ft 2 kts
2026-05-06 14:10 -26.13718 28.23187 5550 ft 2 kts
2026-05-06 14:10 -26.13734 28.23184 5548 ft 2 kts 11°
2026-05-06 14:10 -26.13750 28.23178 5551 ft 2 kts 66°
2026-05-06 14:10 -26.13752 28.23170 5550 ft 0 kts 94°
2026-05-06 14:13 -26.13753 28.23185 5549 ft 6 kts 95°
2026-05-06 14:13 -26.13761 28.23266 5546 ft 14 kts 94°
2026-05-06 14:13 -26.13777 28.23383 5548 ft 16 kts 105°
2026-05-06 14:13 -26.13767 28.23498 5552 ft 16 kts 37°
2026-05-06 14:14 -26.13651 28.23540 5551 ft 20 kts 15°
2026-05-06 14:14 -26.13536 28.23575 5548 ft 14 kts 15°
2026-05-06 14:14 -26.13483 28.23591 5547 ft 1 kts 13°
2026-05-06 14:14 -26.13454 28.23580 5546 ft 8 kts 325°
2026-05-06 14:15 -26.13432 28.23506 5547 ft 12 kts 277°
2026-05-06 14:15 -26.13426 28.23408 5546 ft 13 kts 259°
2026-05-06 14:15 -26.13503 28.23364 5547 ft 14 kts 185°
2026-05-06 14:15 -26.13592 28.23353 5547 ft 13 kts 186°
2026-05-06 14:16 -26.13682 28.23343 5546 ft 13 kts 186°
2026-05-06 14:16 -26.13761 28.23367 5547 ft 13 kts 134°
2026-05-06 14:16 -26.13796 28.23460 5550 ft 13 kts 125°
2026-05-06 14:16 -26.13882 28.23468 5554 ft 14 kts 195°
2026-05-06 14:17 -26.13992 28.23434 5557 ft 18 kts 195°
2026-05-06 14:17 -26.14128 28.23392 5559 ft 22 kts 195°
2026-05-06 14:17 -26.14276 28.23346 5562 ft 20 kts 196°
2026-05-06 14:17 -26.14375 28.23315 5563 ft 14 kts 195°
2026-05-06 14:18 -26.14482 28.23283 5563 ft 16 kts 194°
2026-05-06 14:18 -26.14566 28.23288 5563 ft 12 kts 164°
2026-05-06 14:18 -26.14592 28.23309 5562 ft 0 kts 124°
2026-05-06 14:19 -26.14596 28.23317 5562 ft 6 kts 115°
2026-05-06 14:19 -26.14618 28.23397 5562 ft 13 kts 105°
2026-05-06 14:19 -26.14570 28.23458 5561 ft 14 kts 14°
2026-05-06 14:19 -26.14556 28.23462 5560 ft 0 kts 15°
2026-05-06 14:20 -26.14530 28.23470 5560 ft 22 kts 15°
2026-05-06 14:20 -26.14165 28.23583 5562 ft 85 kts 15°
2026-05-06 14:20 -26.13399 28.23819 5547 ft 142 kts 15°
2026-05-06 14:21 -26.12297 28.24164 5557 ft 185 kts 12°
2026-05-06 14:21 -26.11021 28.24607 6010 ft 199 kts 12°
2026-05-06 14:21 -26.09681 28.24983 6775 ft 191 kts
2026-05-06 14:21 -26.08384 28.25328 7546 ft 194 kts
2026-05-06 14:22 -26.07032 28.25166 7803 ft 205 kts 338°
2026-05-06 14:22 -26.05628 28.24761 8403 ft 204 kts 343°
2026-05-06 14:22 -26.04314 28.24540 9476 ft 181 kts 347°
2026-05-06 14:22 -26.03158 28.24010 9853 ft 189 kts 309°
2026-05-06 14:23 -26.02699 28.22639 10014 ft 203 kts 266°
2026-05-06 14:23 -26.03294 28.21142 10196 ft 227 kts 236°
2026-05-06 14:23 -26.04343 28.19721 10376 ft 249 kts 226°
2026-05-06 14:23 -26.05874 28.18704 10827 ft 266 kts 202°
2026-05-06 14:24 -26.07745 28.18307 11216 ft 287 kts 192°
2026-05-06 14:24 -26.09802 28.18115 11388 ft 314 kts 189°
2026-05-06 14:24 -26.12065 28.17965 11629 ft 336 kts 188°
2026-05-06 14:24 -26.14433 28.17812 12220 ft 344 kts 189°
2026-05-06 14:25 -26.16842 28.17643 12962 ft 349 kts 190°
2026-05-06 14:25 -26.19273 28.17455 13744 ft 351 kts 191°
2026-05-06 14:25 -26.21726 28.17249 14378 ft 356 kts 192°
2026-05-06 14:25 -26.24214 28.17025 14927 ft 363 kts 192°
2026-05-06 14:26 -26.26747 28.16789 15544 ft 367 kts 193°
2026-05-06 14:26 -26.29307 28.16547 16158 ft 372 kts 193°
2026-05-06 14:26 -26.31903 28.16297 16727 ft 377 kts 193°
2026-05-06 14:26 -26.34532 28.16043 17322 ft 382 kts 193°
2026-05-06 14:27 -26.37197 28.15785 17928 ft 386 kts 193°
2026-05-06 14:27 -26.39891 28.15523 18496 ft 391 kts 193°
2026-05-06 14:27 -26.42622 28.15257 18960 ft 397 kts 193°
2026-05-06 14:27 -26.45393 28.14987 19454 ft 402 kts 194°
2026-05-06 14:28 -26.48206 28.14713 19940 ft 408 kts 194°
2026-05-06 14:28 -26.50082 28.14529 20245 ft 411 kts 194°
2026-05-06 14:28 -26.52955 28.14249 20707 ft 417 kts 195°
2026-05-06 14:28 -26.55860 28.13966 21172 ft 422 kts 195°
2026-05-06 14:29 -26.58803 28.13679 21627 ft 427 kts 195°
2026-05-06 14:29 -26.61780 28.13388 22057 ft 432 kts 195°
2026-05-06 14:29 -26.64798 28.13093 22465 ft 438 kts 196°
2026-05-06 14:29 -26.67852 28.12795 22905 ft 443 kts 196°
2026-05-06 14:30 -26.70933 28.12494 23336 ft 447 kts 196°
2026-05-06 14:30 -26.74050 28.12190 23730 ft 452 kts 196°
2026-05-06 14:30 -26.77189 28.11885 24151 ft 453 kts 196°
2026-05-06 14:30 -26.80328 28.11583 24622 ft 453 kts 196°
2026-05-06 14:31 -26.83468 28.11279 25058 ft 454 kts 196°
2026-05-06 14:31 -26.86623 28.10972 25453 ft 456 kts 195°
2026-05-06 14:31 -26.89790 28.10662 25831 ft 458 kts 195°
2026-05-06 14:31 -26.92975 28.10349 26209 ft 460 kts 195°
2026-05-06 14:32 -26.96172 28.10035 26589 ft 462 kts 195°
2026-05-06 14:32 -26.99383 28.09719 26949 ft 464 kts 195°
2026-05-06 14:32 -27.02609 28.09402 27306 ft 467 kts 195°
2026-05-06 14:32 -27.05852 28.09083 27665 ft 469 kts 195°
2026-05-06 14:33 -27.09068 28.08767 27994 ft 471 kts 195°
2026-05-06 14:33 -27.12389 28.08440 28315 ft 474 kts 195°
2026-05-06 14:33 -27.15687 28.08114 28603 ft 478 kts 195°
2026-05-06 14:33 -27.18966 28.07791 28873 ft 480 kts 195°
2026-05-06 14:34 -27.22351 28.07458 29178 ft 483 kts 195°
2026-05-06 14:34 -27.25667 28.07131 29428 ft 486 kts 195°
2026-05-06 14:34 -27.29055 28.06797 29688 ft 490 kts 195°
2026-05-06 14:34 -27.32457 28.06461 29938 ft 493 kts 195°
2026-05-06 14:35 -27.35879 28.06124 30170 ft 495 kts 195°
2026-05-06 14:35 -27.39325 28.05786 30419 ft 497 kts 195°
2026-05-06 14:35 -27.42773 28.05447 30682 ft 497 kts 195°
2026-05-06 14:35 -27.46221 28.05104 30946 ft 498 kts 196°
2026-05-06 14:36 -27.49617 28.04529 31195 ft 487 kts 204°
2026-05-06 14:36 -27.52836 28.03487 31500 ft 479 kts 208°
2026-05-06 14:36 -27.56002 28.02343 31842 ft 476 kts 209°
2026-05-06 14:36 -27.59149 28.01180 32133 ft 476 kts 209°
2026-05-06 14:37 -27.62302 28.00020 32411 ft 477 kts 208°
2026-05-06 14:37 -27.65466 27.98874 32698 ft 477 kts 208°
2026-05-06 14:37 -27.68627 27.97745 33003 ft 477 kts 208°
2026-05-06 14:37 -27.71792 27.96626 33302 ft 477 kts 207°
2026-05-06 14:38 -27.74962 27.95508 33574 ft 477 kts 207°
2026-05-06 14:38 -27.78131 27.94392 33829 ft 478 kts 207°
2026-05-06 14:38 -27.81304 27.93272 34073 ft 478 kts 207°
2026-05-06 14:38 -27.84475 27.92153 34325 ft 477 kts 207°
2026-05-06 14:39 -27.87638 27.91035 34610 ft 475 kts 207°
2026-05-06 14:39 -27.90780 27.89924 34892 ft 473 kts 207°
2026-05-06 14:39 -27.93879 27.88825 35155 ft 472 kts 207°
2026-05-06 14:39 -27.97002 27.87718 35393 ft 471 kts 207°
2026-05-06 14:40 -28.00126 27.86608 35626 ft 469 kts 207°
2026-05-06 14:40 -28.03228 27.85482 35876 ft 468 kts 207°
2026-05-06 14:40 -28.09433 27.83185 35968 ft 470 kts 207°
2026-05-06 14:41 -28.15629 27.80887 35972 ft 467 kts 207°
2026-05-06 14:41 -28.21805 27.78603 35976 ft 465 kts 207°
2026-05-06 14:42 -28.27946 27.76332 35966 ft 464 kts 207°
2026-05-06 14:42 -28.34074 27.74062 35971 ft 462 kts 207°
2026-05-06 14:43 -28.40192 27.71791 35968 ft 462 kts 207°
2026-05-06 14:43 -28.46300 27.69523 35973 ft 462 kts 207°
2026-05-06 14:44 -28.52419 27.67248 35968 ft 463 kts 207°
2026-05-06 14:45 -28.61622 27.63827 35970 ft 464 kts 206°
2026-05-06 14:45 -28.67765 27.61540 35973 ft 465 kts 206°
2026-05-06 14:46 -28.73916 27.59246 35973 ft 465 kts 206°
2026-05-06 14:46 -28.80071 27.56948 35970 ft 466 kts 206°
2026-05-06 14:47 -28.86234 27.54644 35968 ft 466 kts 206°
2026-05-06 14:47 -28.92395 27.52338 35961 ft 466 kts 206°
2026-05-06 14:48 -28.98511 27.50047 35960 ft 465 kts 206°
2026-05-06 14:48 -29.04692 27.47728 35961 ft 464 kts 206°
2026-05-06 14:49 -29.10827 27.45422 35960 ft 464 kts 206°
2026-05-06 14:49 -29.16915 27.43132 35976 ft 463 kts 206°
2026-05-06 14:50 -29.23037 27.40826 35987 ft 463 kts 206°
2026-05-06 14:50 -29.29147 27.38521 35996 ft 462 kts 206°
2026-05-06 14:51 -29.35256 27.36213 35997 ft 462 kts 206°
2026-05-06 14:51 -29.41355 27.33907 36001 ft 462 kts 206°
2026-05-06 14:52 -29.47461 27.31596 35984 ft 461 kts 205°
2026-05-06 14:52 -29.53556 27.29285 35985 ft 461 kts 205°
2026-05-06 14:53 -29.59644 27.26975 35963 ft 461 kts 205°
2026-05-06 14:53 -29.65728 27.24662 35951 ft 460 kts 205°
2026-05-06 14:54 -29.71805 27.22350 35934 ft 460 kts 205°
2026-05-06 14:54 -29.77885 27.20033 35931 ft 460 kts 205°
2026-05-06 14:55 -29.83958 27.17716 35918 ft 459 kts 204°
2026-05-06 14:55 -29.90022 27.15400 35913 ft 459 kts 204°
2026-05-06 14:56 -29.96067 27.13088 35907 ft 458 kts 204°
2026-05-06 14:56 -30.02105 27.10776 35906 ft 456 kts 204°
2026-05-06 14:57 -30.08085 27.08483 35903 ft 455 kts 204°
2026-05-06 14:57 -30.14078 27.06182 35896 ft 453 kts 204°
2026-05-06 14:58 -30.20058 27.03883 35878 ft 452 kts 204°
2026-05-06 14:58 -30.26017 27.01589 35881 ft 450 kts 204°
2026-05-06 14:59 -30.31956 26.99300 35877 ft 449 kts 204°
2026-05-06 14:59 -30.37883 26.97012 35873 ft 449 kts 204°
2026-05-06 15:00 -30.43805 26.94724 35875 ft 448 kts 204°
2026-05-06 15:00 -30.49726 26.92432 35870 ft 449 kts 204°
2026-05-06 15:01 -30.55654 26.90135 35867 ft 449 kts 203°
2026-05-06 15:01 -30.61588 26.87833 35866 ft 450 kts 203°
2026-05-06 15:02 -30.67539 26.85521 35857 ft 451 kts 203°
2026-05-06 15:02 -30.73463 26.83217 35850 ft 453 kts 203°
2026-05-06 15:03 -30.79474 26.80876 35854 ft 453 kts 203°
2026-05-06 15:03 -30.85463 26.78537 35864 ft 454 kts 203°
2026-05-06 15:04 -30.91409 26.76211 35856 ft 454 kts 202°
2026-05-06 15:04 -30.97404 26.73863 35849 ft 454 kts 202°
2026-05-06 15:05 -31.03399 26.71512 35851 ft 455 kts 202°
2026-05-06 15:05 -31.09398 26.69156 35849 ft 455 kts 202°
2026-05-06 15:06 -31.15384 26.66803 35849 ft 454 kts 202°
2026-05-06 15:06 -31.21360 26.64450 35848 ft 452 kts 202°
2026-05-06 15:07 -31.27320 26.62100 35840 ft 451 kts 202°
2026-05-06 15:07 -31.33257 26.59755 35836 ft 450 kts 202°
2026-05-06 15:08 -31.39178 26.57414 35829 ft 449 kts 202°
2026-05-06 15:08 -31.45089 26.55074 35829 ft 448 kts 202°
2026-05-06 15:09 -31.50990 26.52734 35809 ft 447 kts 202°
2026-05-06 15:09 -31.56878 26.50397 35810 ft 446 kts 202°
2026-05-06 15:10 -31.62753 26.48064 35797 ft 445 kts 202°
2026-05-06 15:10 -31.68618 26.45734 35792 ft 444 kts 202°
2026-05-06 15:11 -31.74426 26.43420 35781 ft 443 kts 201°
2026-05-06 15:11 -31.80254 26.41097 35767 ft 438 kts 201°
2026-05-06 15:12 -31.85994 26.38807 35771 ft 435 kts 201°
2026-05-06 15:12 -31.91710 26.36519 35474 ft 435 kts 201°
2026-05-06 15:12 -31.94558 26.35379 35144 ft 430 kts 201°
2026-05-06 15:13 -31.97385 26.34249 34774 ft 426 kts 200°
2026-05-06 15:13 -32.00178 26.33157 34469 ft 422 kts 197°
2026-05-06 15:13 -32.03091 26.32754 34074 ft 424 kts 178°
2026-05-06 15:13 -32.05981 26.33379 33732 ft 423 kts 169°
2026-05-06 15:14 -32.08873 26.33742 33270 ft 415 kts 187°
2026-05-06 15:14 -32.11691 26.33223 32982 ft 407 kts 191°
2026-05-06 15:14 -32.14475 26.32671 32552 ft 405 kts 191°
2026-05-06 15:14 -32.17239 26.32136 32189 ft 401 kts 191°
2026-05-06 15:15 -32.19981 26.31607 31829 ft 397 kts 190°
2026-05-06 15:15 -32.22692 26.31082 31540 ft 392 kts 190°
2026-05-06 15:15 -32.25353 26.30564 31285 ft 386 kts 190°
2026-05-06 15:15 -32.27981 26.30048 31058 ft 379 kts 190°
2026-05-06 15:16 -32.29696 26.29710 30884 ft 376 kts 190°
2026-05-06 15:16 -32.32273 26.29198 30473 ft 375 kts 190°
2026-05-06 15:16 -32.34844 26.28685 30128 ft 373 kts 190°
2026-05-06 15:16 -32.37385 26.28174 29856 ft 368 kts 190°
2026-05-06 15:17 -32.39895 26.27668 29513 ft 365 kts 190°
2026-05-06 15:17 -32.42392 26.27161 29044 ft 363 kts 190°
2026-05-06 15:17 -32.44885 26.26653 28602 ft 362 kts 190°
2026-05-06 15:17 -32.47351 26.26148 28222 ft 359 kts 190°
2026-05-06 15:18 -32.49766 26.25502 27816 ft 356 kts 202°
2026-05-06 15:18 -32.51881 26.23996 27377 ft 355 kts 219°
2026-05-06 15:18 -32.53668 26.21988 27014 ft 353 kts 225°
2026-05-06 15:18 -32.55249 26.19763 26622 ft 353 kts 230°
2026-05-06 15:19 -32.56745 26.17459 26240 ft 351 kts 231°
2026-05-06 15:19 -32.58207 26.15153 25845 ft 350 kts 231°
2026-05-06 15:19 -32.59637 26.12878 25516 ft 347 kts 231°
2026-05-06 15:19 -32.61088 26.10557 25173 ft 345 kts 231°
2026-05-06 15:20 -32.62490 26.08306 24809 ft 344 kts 231°
2026-05-06 15:20 -32.63904 26.06026 24443 ft 342 kts 231°
2026-05-06 15:20 -32.65308 26.03755 24100 ft 340 kts 231°
2026-05-06 15:20 -32.66888 26.01651 23729 ft 335 kts 216°
2026-05-06 15:21 -32.68866 26.00324 23389 ft 330 kts 199°
2026-05-06 15:21 -32.71090 25.99564 23032 ft 327 kts 193°
2026-05-06 15:21 -32.73297 25.98916 22652 ft 325 kts 193°
2026-05-06 15:21 -32.75458 25.98281 22291 ft 323 kts 193°
2026-05-06 15:22 -32.77632 25.97636 21949 ft 320 kts 193°
2026-05-06 15:22 -32.79784 25.96992 21609 ft 318 kts 193°
2026-05-06 15:22 -32.81924 25.96346 21245 ft 316 kts 193°
2026-05-06 15:22 -32.84045 25.95703 20927 ft 313 kts 193°
2026-05-06 15:23 -32.86151 25.95062 20596 ft 311 kts 193°
2026-05-06 15:23 -32.88236 25.94425 20272 ft 308 kts 193°
2026-05-06 15:23 -32.90309 25.93792 19940 ft 307 kts 193°
2026-05-06 15:23 -32.92370 25.93162 19611 ft 305 kts 193°
2026-05-06 15:24 -32.94422 25.92534 19291 ft 303 kts 193°
2026-05-06 15:24 -32.96457 25.91911 18987 ft 301 kts 193°
2026-05-06 15:24 -32.98478 25.91292 18669 ft 300 kts 194°
2026-05-06 15:24 -33.00492 25.90674 18355 ft 298 kts 194°
2026-05-06 15:25 -33.02494 25.90060 18068 ft 296 kts 194°
2026-05-06 15:25 -33.04482 25.89450 17733 ft 294 kts 194°
2026-05-06 15:25 -33.06457 25.88844 17392 ft 293 kts 194°
2026-05-06 15:25 -33.08421 25.88240 17057 ft 291 kts 194°
2026-05-06 15:26 -33.10376 25.87639 16733 ft 289 kts 194°
2026-05-06 15:26 -33.12317 25.87043 16361 ft 288 kts 194°
2026-05-06 15:26 -33.14252 25.86448 16045 ft 286 kts 194°
2026-05-06 15:26 -33.16168 25.85858 15756 ft 283 kts 194°
2026-05-06 15:27 -33.18072 25.85270 15400 ft 282 kts 195°
2026-05-06 15:27 -33.19932 25.84574 15170 ft 278 kts 198°
2026-05-06 15:27 -33.21754 25.83794 14848 ft 277 kts 199°
2026-05-06 15:27 -33.23551 25.83001 14566 ft 275 kts 200°
2026-05-06 15:28 -33.25336 25.82212 14286 ft 272 kts 199°
2026-05-06 15:28 -33.27107 25.81432 13998 ft 270 kts 199°
2026-05-06 15:28 -33.28867 25.80661 13718 ft 268 kts 199°
2026-05-06 15:28 -33.30617 25.79896 13436 ft 268 kts 199°
2026-05-06 15:29 -33.32365 25.79135 13109 ft 267 kts 199°
2026-05-06 15:29 -33.34078 25.78389 12815 ft 265 kts 199°
2026-05-06 15:29 -33.35806 25.77638 12506 ft 263 kts 199°
2026-05-06 15:29 -33.37519 25.76893 12234 ft 261 kts 199°
2026-05-06 15:30 -33.39224 25.76153 11944 ft 260 kts 199°
2026-05-06 15:30 -33.40896 25.75357 11663 ft 259 kts 206°
2026-05-06 15:30 -33.42469 25.74315 11389 ft 257 kts 208°
2026-05-06 15:30 -33.44023 25.73254 11111 ft 256 kts 208°
2026-05-06 15:31 -33.45561 25.72196 10843 ft 255 kts 208°
2026-05-06 15:31 -33.47094 25.71139 10565 ft 253 kts 208°
2026-05-06 15:31 -33.48615 25.70090 10293 ft 252 kts 208°
2026-05-06 15:32 -33.51641 25.67995 9762 ft 250 kts 208°
2026-05-06 15:32 -33.53123 25.66964 9639 ft 243 kts 208°
2026-05-06 15:32 -33.54578 25.65934 9404 ft 245 kts 209°
2026-05-06 15:32 -33.56040 25.64839 9146 ft 250 kts 210°
2026-05-06 15:33 -33.57525 25.63712 8875 ft 255 kts 210°
2026-05-06 15:33 -33.59027 25.62568 8611 ft 255 kts 210°
2026-05-06 15:33 -33.60513 25.61427 8355 ft 253 kts 210°
2026-05-06 15:33 -33.61989 25.60289 8085 ft 251 kts 210°
2026-05-06 15:34 -33.63430 25.59168 7840 ft 249 kts 210°
2026-05-06 15:34 -33.64850 25.57993 7603 ft 247 kts 212°
2026-05-06 15:34 -33.66235 25.56779 7352 ft 245 kts 213°
2026-05-06 15:34 -33.67599 25.55561 7108 ft 243 kts 213°
2026-05-06 15:35 -33.68943 25.54348 6879 ft 241 kts 213°
2026-05-06 15:35 -33.70270 25.53136 6660 ft 238 kts 213°
2026-05-06 15:35 -33.71584 25.51934 6428 ft 236 kts 213°
2026-05-06 15:35 -33.72881 25.50738 6220 ft 234 kts 213°
2026-05-06 15:36 -33.74152 25.49545 6004 ft 231 kts 213°
2026-05-06 15:36 -33.75403 25.48360 5815 ft 227 kts 213°
2026-05-06 15:36 -33.76634 25.47190 5614 ft 225 kts 213°
2026-05-06 15:36 -33.77880 25.46001 5362 ft 233 kts 213°
2026-05-06 15:37 -33.79168 25.44770 5128 ft 240 kts 213°
2026-05-06 15:37 -33.80489 25.43502 4876 ft 244 kts 213°
2026-05-06 15:37 -33.81817 25.42262 4629 ft 240 kts 209°
2026-05-06 15:37 -33.83181 25.41118 4355 ft 238 kts 208°
2026-05-06 15:38 -33.84538 25.40000 4120 ft 235 kts 208°
2026-05-06 15:38 -33.85873 25.38884 3874 ft 233 kts 208°
2026-05-06 15:38 -33.87200 25.37758 3610 ft 233 kts 208°
2026-05-06 15:38 -33.88514 25.36627 3362 ft 232 kts 207°
2026-05-06 15:39 -33.89815 25.35482 3114 ft 230 kts 208°
2026-05-06 15:39 -33.91073 25.34357 3026 ft 221 kts 208°
2026-05-06 15:39 -33.92272 25.33266 2997 ft 209 kts 206°
2026-05-06 15:39 -33.93493 25.32757 2975 ft 169 kts 168°
2026-05-06 15:40 -33.94350 25.33468 2976 ft 151 kts 121°
2026-05-06 15:40 -33.94449 25.34704 3012 ft 147 kts 112°
2026-05-06 15:40 -33.95038 25.35558 3025 ft 138 kts 154°
2026-05-06 15:40 -33.95882 25.36172 3015 ft 143 kts 147°
2026-05-06 15:41 -33.96666 25.36859 2996 ft 140 kts 146°
2026-05-06 15:41 -33.97446 25.37579 2966 ft 144 kts 146°
2026-05-06 15:41 -33.98236 25.38341 2994 ft 150 kts 143°
2026-05-06 15:41 -33.99056 25.39164 2974 ft 156 kts 143°
2026-05-06 15:42 -33.99887 25.40024 2992 ft 161 kts 141°
2026-05-06 15:42 -34.00736 25.40925 2994 ft 163 kts 141°
2026-05-06 15:42 -34.01584 25.41840 2988 ft 164 kts 141°
2026-05-06 15:42 -34.02389 25.42718 2990 ft 151 kts 141°
2026-05-06 15:43 -34.03123 25.43522 2976 ft 134 kts 141°
2026-05-06 15:43 -34.03769 25.44233 2971 ft 121 kts 141°
2026-05-06 15:43 -34.04381 25.44905 2995 ft 120 kts 141°
2026-05-06 15:43 -34.05009 25.45592 3002 ft 123 kts 138°
2026-05-06 15:44 -34.05368 25.46523 3006 ft 126 kts 109°
2026-05-06 15:44 -34.05154 25.47631 3011 ft 141 kts 93°
2026-05-06 15:44 -34.04935 25.48754 2989 ft 142 kts 87°
2026-05-06 15:44 -34.04522 25.49850 2965 ft 144 kts 83°
2026-05-06 15:45 -34.04089 25.50932 2953 ft 144 kts 82°
2026-05-06 15:45 -34.03493 25.51977 2807 ft 174 kts 58°
2026-05-06 15:45 -34.02633 25.53090 2456 ft 185 kts 76°
2026-05-06 15:45 -34.02074 25.54475 2045 ft 183 kts 84°
2026-05-06 15:46 -34.01503 25.55886 1476 ft 188 kts 76°
2026-05-06 15:46 -34.00794 25.57203 961 ft 183 kts 71°
2026-05-06 15:46 -34.00190 25.58464 637 ft 166 kts 60°
2026-05-06 15:46 -33.99599 25.59592 349 ft 152 kts 52°
2026-05-06 15:47 -33.99079 25.60597 213 ft 129 kts 57°
2026-05-06 15:47 -33.98710 25.61308 215 ft 69 kts 58°
2026-05-06 15:47 -33.98558 25.61601 214 ft 35 kts 57°
2026-05-06 15:47 -33.98420 25.61866 216 ft 35 kts 58°
2026-05-06 15:48 -33.98321 25.61945 211 ft 13 kts 338°
2026-05-06 15:48 -33.98240 25.61874 211 ft 16 kts 302°
2026-05-06 15:48 -33.98263 25.61763 211 ft 16 kts 238°
2026-05-06 15:48 -33.98329 25.61637 215 ft 20 kts 238°
2026-05-06 15:49 -33.98388 25.61523 212 ft 12 kts 238°
2026-05-06 15:49 -33.98425 25.61440 216 ft 12 kts 248°
2026-05-06 15:49 -33.98462 25.61337 214 ft 15 kts 242°
2026-05-06 15:49 -33.98503 25.61260 212 ft 9 kts 238°
2026-05-06 15:50 -33.98503 25.61205 218 ft 7 kts 308°
2026-05-06 15:50 -33.98483 25.61187 211 ft 1 kts 328°
2026-05-06 15:50 -33.98479 25.61184 211 ft 0 kts 328°